Wind_Speed
1 1 1 2 3 3 3 2 2 2 1 1 2 2 2 2 2 2 1 1 1 1 1 2 3 3 3 3 3 3 2 2 2 2 2 3 3 3 3 4 4 3 2 2 4 5 5 6 6
1 1 2 2 3 2 2 2 2 2 1 1 1 2 2 2 1 2 1 1 1 1 2 2 3 4 4 4 4 4 4 4 4 4 3 3 4 4 3 4 4 4 4 4 4 5 6 6 7
1 1 2 2 3 3 2 2 2 2 2 1 2 2 2 2 1 1 1 1 1 1 2 3 4 4 4 4 5 5 5 5 5 5 5 4 4 4 4 5 5 5 5 5 6 6 6 7 8
2 2 2 2 2 3 3 2 2 2 2 2 2 2 3 2 2 2 2 2 2 2 3 4 5 5 5 5 5 5 6 6 6 5 5 5 5 5 5 6 6 6 7 6 7 7 7 6 7
2 2 2 2 3 3 3 2 3 3 3 3 3 3 3 3 3 3 3 3 3 3 4 5 5 4 5 5 5 5 6 6 6 5 5 5 6 6 7 7 7 7 7 8 8 8 8 8 8
2 2 2 3 3 3 3 3 3 4 3 3 4 3 4 4 4 4 4 4 4 4 4 5 5 5 5 5 5 5 5 5 6 6 6 6 7 7 7 7 7 8 8 8 8 8 9 9 9
3 3 3 3 2 3 3 3 3 3 3 4 4 4 4 4 4 4 5 5 6 5 5 5 6 6 6 6 6 6 6 6 6 7 7 7 7 7 8 7 7 7 7 7 8 8 9 10 10
3 3 4 3 3 3 3 3 3 3 4 4 5 5 4 5 5 5 6 6 7 6 6 7 7 7 7 7 7 7 7 7 7 7 8 8 7 8 8 7 8 8 8 8 9 9 9 10 11
4 4 4 4 4 4 4 4 4 4 4 4 4 4 4 5 6 6 6 6 7 7 7 7 7 7 7 7 8 8 8 8 8 8 9 9 9 8 7 8 9 9 8 9 10 10 10 10 11
5 5 5 5 5 5 5 4 4 4 5 5 5 5 5 5 6 6 6 6 7 7 7 7 7 8 8 8 8 8 9 9 9 9 10 9 9 9 8 8 9 9 9 10 10 10 11 12 12
6 6 6 6 6 6 6 6 5 5 5 6 6 6 6 6 6 6 7 8 8 8 8 8 8 8 8 8 8 9 9 9 10 10 10 10 10 10 10 9 9 10 10 11 11 11 11 12 12
7 7 7 7 7 7 7 7 6 6 7 7 7 7 7 7 7 7 8 8 8 8 9 9 9 8 8 9 9 9 10 10 10 10 11 11 11 11 11 10 10 10 11 11 11 12 12 12 12
8 8 8 8 8 8 8 8 8 8 8 8 8 7 7 7 7 8 8 8 8 8 9 9 9 9 9 9 9 9 10 10 10 11 11 11 11 12 11 11 11 11 12 12 11 12 12 12 12
10 9 9 9 9 9 9 9 8 8 8 8 8 7 8 8 8 8 8 8 8 8 9 9 9 9 9 9 9 9 9 9 10 10 11 11 11 11 10 11 11 11 11 11 11 11 11 12 12
10 10 10 9 9 9 9 9 9 9 8 8 8 8 8 8 8 8 8 8 8 8 9 9 9 10 10 10 10 10 10 10 10 10 10 10 10 10 11 11 11 11 11 11 11 11 11 12 12
10 10 10 9 10 10 10 9 9 9 9 8 8 8 8 8 8 9 8 8 8 9 9 9 10 10 10 10 11 10 11 11 11 11 11 10 11 11 11 12 12 12 12 12 12 12 12 12 13
10 10 9 10 10 10 10 10 10 10 9 9 8 9 9 9 9 9 9 9 9 9 10 10 10 11 11 11 11 11 11 12 12 12 12 11 11 11 11 12 12 12 12 12 12 12 12 13 14
10 10 10 11 11 11 11 11 11 11 10 10 10 10 10 10 10 10 10 10 10 10 10 11 11 11 11 11 11 11 12 12 12 12 12 12 12 12 12 12 12 13 13 13 13 14 14 14 14
11 11 11 12 12 13 13 12 12 12 11 11 11 11 11 11 11 11 11 11 11 11 11 11 11 12 12 12 12 12 12 12 12 12 12 12 13 13 13 13 13 13 13 14 14 14 15 15 15
12 12 12 13 13 14 13 13 12 12 12 12 12 12 12 12 12 12 12 12 12 13 12 12 12 12 12 12 13 13 13 13 13 13 13 13 13 14 14 14 14 14 14 15 15 16 16 15 15
12 12 13 14 14 14 14 13 13 12 13 13 13 13 13 12 12 12 12 13 13 13 13 13 13 13 13 13 13 14 14 14 14 14 14 14 14 14 14 15 14 15 15 15 16 16 16 16 15
12 13 14 14 14 14 14 14 13 13 14 14 14 14 13 13 13 13 13 13 13 13 13 13 14 14 13 13 14 14 14 15 15 15 15 15 15 15 15 15 15 15 15 15 16 15 16 16 16
13 13 14 14 14 15 15 15 14 14 14 14 14 14 14 13 13 14 14 14 14 13 14 14 14 14 14 14 14 15 15 15 16 16 16 16 16 16 16 16 15 15 15 15 15 15 16 16 16
13 14 14 14 15 15 14 15 14 13 14 14 14 14 14 14 14 14 14 14 14 14 14 14 14 15 15 15 15 15 16 16 16 16 16 16 16 16 16 16 15 15 16 16 16 16 16 16 16
14 14 14 15 15 15 15 15 14 13 13 14 15 15 15 15 15 15 15 15 15 15 16 15 15 15 16 16 16 16 16 16 16 16 16 16 16 16 16 16 16 16 16 17 17 17 17 17 16
15 15 15 16 16 16 15 15 14 13 13 14 15 15 15 16 16 16 16 16 16 17 17 16 16 16 16 16 16 16 17 17 16 16 16 16 17 17 17 16 17 17 17 18 18 18 18 18 18
16 16 16 16 17 16 16 15 15 15 15 14 15 15 16 16 16 16 17 17 17 18 18 17 17 17 17 17 17 17 18 17 17 17 17 17 18 18 17 17 18 18 18 18 18 19 18 18 18
17 17 17 17 17 17 16 16 16 16 15 15 16 16 17 17 17 17 18 18 18 18 19 18 18 18 18 18 18 18 18 18 18 18 18 18 19 19 19 19 19 19 20 20 20 20 20 19 19
18 18 18 18 18 18 18 17 17 17 16 16 17 17 18 18 19 19 19 19 19 19 20 19 19 19 19 19 18 19 19 19 19 19 19 20 20 20 20 20 20 20 21 21 21 21 21 20 20
20 19 19 19 19 19 19 19 18 18 18 18 18 18 19 20 20 20 20 20 21 21 20 20 20 20 20 19 19 20 20 20 20 20 21 21 21 21 21 21 22 21 22 22 22 22 21 21 21
Wind_Direction
137 152 165 165 161 161 167 178 187 187 204 221 203 193 200 208 213 212 215 226 252 274 311 322 327 335 339 347 348 342 334 340 320 296 285 288 288 290 280 281 269 250 239 234 233 231 235 240 246
149 150 162 169 174 180 194 211 206 208 225 248 222 213 213 221 224 214 228 261 288 285 290 295 305 312 313 314 316 319 316 309 304 300 294 286 282 282 286 283 271 256 248 248 248 245 249 253 256
196 195 179 175 183 194 195 210 219 229 236 251 254 238 235 228 220 223 239 284 297 298 292 290 296 299 300 304 306 306 310 308 304 305 299 293 284 282 283 276 270 261 256 255 257 261 263 258 255
202 212 212 201 203 206 210 222 239 250 255 259 253 246 238 242 244 246 265 286 294 290 292 295 295 297 300 298 302 306 308 309 307 306 301 297 292 284 283 277 271 265 265 266 265 263 263 259 257
210 216 221 220 220 218 226 243 258 263 268 263 254 250 243 243 250 253 264 278 285 287 288 291 290 292 298 299 298 302 304 306 306 306 302 300 300 289 282 280 271 269 268 266 266 263 264 262 260
218 220 218 226 224 231 238 243 251 266 268 268 262 256 248 251 252 257 266 272 278 280 281 283 286 289 292 295 295 298 301 304 302 301 302 298 295 295 287 285 279 274 274 270 266 265 264 263 263
227 221 226 223 223 235 237 249 257 265 266 266 259 255 254 260 256 261 267 271 274 272 272 277 279 282 285 287 291 294 297 301 300 299 298 296 295 295 291 286 284 278 276 273 270 267 265 264 263
231 230 233 232 234 245 254 259 266 274 274 269 270 261 257 262 262 268 272 272 273 274 273 274 277 277 276 282 287 293 297 299 298 298 298 293 291 290 287 283 284 282 281 278 273 270 270 270 268
236 237 239 236 239 251 265 273 278 280 279 278 275 273 268 267 271 275 276 275 274 277 279 279 280 283 281 282 286 289 290 292 294 296 295 293 293 291 290 291 286 281 278 276 274 271 272 273 274
246 245 247 247 246 253 264 271 273 281 286 285 277 274 276 275 274 277 278 281 282 283 285 283 281 283 285 285 284 286 289 289 291 293 295 296 295 297 298 294 291 282 280 281 277 274 273 275 277
250 251 250 250 251 256 262 267 268 274 280 284 282 281 279 278 277 277 278 281 284 285 286 286 284 283 282 283 284 286 291 289 289 292 293 294 293 294 295 293 295 292 290 287 281 279 277 276 276
249 250 251 251 253 257 261 267 269 272 275 279 279 277 273 274 276 278 280 281 281 282 284 284 283 282 283 283 284 288 290 290 287 291 293 292 291 291 291 292 294 293 292 288 282 279 277 277 276
249 251 252 254 256 257 261 267 269 273 275 277 276 272 271 271 275 278 279 281 280 283 284 284 283 281 282 284 287 289 290 291 290 291 293 293 291 290 292 294 292 291 290 289 284 277 274 274 275
252 253 254 257 258 257 262 266 268 272 273 273 273 274 272 273 275 277 280 282 283 286 287 285 284 282 280 281 286 289 291 294 293 292 291 291 292 292 292 292 292 292 293 292 289 284 281 278 276
252 252 253 256 259 260 262 262 266 269 269 269 270 272 273 273 276 278 280 283 287 289 290 286 283 282 280 279 283 287 290 291 291 291 291 292 292 291 293 295 293 291 292 291 289 286 283 282 280
251 253 254 256 259 261 261 263 266 266 267 267 268 269 273 274 276 279 281 284 287 288 288 285 282 281 280 279 282 284 286 286 287 289 289 289 292 293 295 295 296 294 291 289 287 287 286 283 283
251 252 254 257 259 261 262 262 264 265 265 266 268 269 273 277 276 279 281 282 282 283 286 285 282 281 280 278 281 282 282 283 286 288 287 287 289 292 294 294 294 295 292 289 287 287 287 286 285
253 253 256 258 260 261 262 261 262 263 265 265 267 270 273 277 278 278 279 280 279 281 284 286 285 281 279 280 281 282 282 283 284 287 288 287 286 289 293 293 293 293 290 289 288 288 288 288 286
253 253 256 259 259 262 263 262 262 261 263 265 268 271 273 276 279 277 277 280 281 282 285 288 287 282 280 280 281 283 283 284 282 285 287 287 288 288 290 291 292 292 291 292 290 291 291 291 288
254 255 257 259 260 262 262 262 262 262 263 265 268 271 273 276 280 279 278 279 281 284 285 287 286 284 283 281 281 284 284 284 284 285 286 288 290 291 289 289 290 290 291 293 293 294 293 292 289
255 255 257 260 263 264 264 263 263 264 264 265 268 270 272 276 280 280 279 279 281 281 282 283 285 285 284 283 283 284 285 286 286 286 286 288 291 292 292 291 292 292 292 293 292 293 293 293 290
255 257 259 262 262 264 266 266 264 265 265 266 268 269 271 274 278 279 280 280 280 279 281 284 286 286 286 286 286 286 286 286 286 284 285 287 289 290 293 293 293 294 294 295 294 294 293 292 290
256 259 261 262 263 265 266 267 266 264 264 266 267 268 271 274 277 279 280 280 282 282 283 285 287 288 287 285 286 286 286 286 286 285 285 286 287 289 292 293 292 294 295 296 295 294 292 291 290
258 261 263 263 265 266 267 267 266 264 264 264 266 268 270 272 276 278 278 279 281 280 281 283 285 288 287 284 285 285 285 286 285 285 285 285 286 289 292 292 293 295 296 296 296 294 294 292 290
257 259 263 264 265 267 267 266 265 264 263 263 265 266 268 270 273 275 277 279 280 279 279 281 284 286 287 285 284 284 284 285 285 285 285 285 287 288 291 292 294 294 294 294 294 294 294 294 291
256 256 259 262 265 269 269 266 265 265 264 264 265 266 266 268 272 274 276 278 279 280 281 281 282 284 285 285 284 283 284 285 285 286 286 286 287 289 289 291 295 294 294 295 294 293 291 291 290
254 255 259 262 265 268 269 268 266 265 265 265 264 265 266 268 271 274 277 279 279 280 282 282 282 283 284 284 283 283 284 285 286 287 287 286 288 289 290 291 293 294 295 295 294 292 291 289 289
254 256 258 262 264 267 269 268 267 266 266 267 266 265 266 267 270 273 277 280 279 279 281 282 280 281 282 283 284 283 283 284 285 286 288 288 289 290 290 291 292 294 295 294 293 292 290 289 288
255 257 258 260 263 266 268 269 269 268 268 267 267 266 266 267 270 273 276 278 280 279 279 281 281 280 281 281 281 283 284 284 284 285 286 288 289 289 289 291 292 292 294 295 293 292 289 288 287
256 256 256 258 263 265 267 269 269 269 269 269 269 268 267 267 270 274 277 278 279 278 278 280 280 280 280 280 281 283 283 283 284 285 286 286 287 288 288 291 292 292 293 293 293 291 290 288 286
Height
5883 5884 5885 5886 5887 5887 5886 5887 5887 5887 5887 5887 5886 5886 5886 5887 5888 5890 5887 5885 5885 5885 5884 5884 5883 5883 5882 5882 5881 5880 5879 5879 5878 5878 5877 5877 5876 5876 5875 5874 5874 5873 5872 5872 5872 5872 5872 5872 5872
5883 5884 5885 5886 5886 5886 5887 5886 5886 5887 5887 5886 5886 5886 5886 5886 5886 5886 5885 5885 5885 5884 5884 5884 5883 5883 5882 5881 5881 5880 5879 5878 5878 5878 5877 5876 5876 5875 5874 5874 5873 5872 5872 5872 5871 5871 5871 5871 5871
5883 5884 5885 5885 5885 5886 5886 5886 5886 5886 5886 5885 5886 5886 5886 5886 5885 5885 5885 5884 5884 5884 5883 5883 5883 5882 5882 5881 5880 5880 5879 5878 5877 5877 5876 5876 5875 5874 5873 5873 5872 5872 5871 5871 5870 5870 5870 5870 5869
5883 5884 5885 5885 5885 5885 5885 5885 5885 5885 5885 5885 5885 5885 5885 5885 5885 5884 5884 5884 5883 5883 5883 5882 5882 5882 5881 5880 5880 5879 5878 5877 5876 5876 5875 5874 5874 5873 5872 5871 5871 5871 5870 5869 5869 5869 5868 5868 5868
5883 5884 5884 5884 5884 5884 5884 5884 5884 5884 5884 5884 5884 5884 5884 5884 5884 5883 5883 5883 5883 5882 5882 5881 5881 5881 5880 5879 5879 5878 5877 5876 5876 5875 5874 5873 5873 5872 5871 5870 5869 5869 5868 5868 5867 5867 5867 5866 5866
5883 5883 5884 5883 5883 5883 5883 5883 5883 5883 5883 5883 5883 5883 5883 5883 5882 5882 5882 5882 5882 5881 5881 5880 5880 5879 5879 5878 5878 5877 5876 5875 5875 5874 5873 5872 5871 5871 5870 5869 5868 5867 5867 5866 5866 5865 5865 5865 5864
5882 5882 5882 5883 5883 5883 5883 5882 5882 5882 5882 5882 5882 5882 5882 5881 5881 5881 5881 5880 5880 5880 5880 5879 5879 5878 5878 5877 5877 5876 5875 5874 5873 5873 5872 5871 5870 5869 5868 5867 5867 5866 5865 5864 5864 5863 5863 5863 5862
5880 5882 5881 5881 5882 5882 5882 5881 5881 5881 5881 5881 5881 5881 5881 5881 5880 5880 5879 5879 5879 5878 5878 5878 5877 5877 5876 5876 5875 5874 5874 5873 5872 5871 5870 5869 5868 5867 5866 5865 5865 5864 5864 5863 5862 5862 5861 5861 5860
5879 5881 5880 5880 5881 5881 5880 5880 5880 5880 5880 5880 5880 5880 5879 5879 5879 5878 5878 5878 5877 5877 5877 5876 5876 5875 5875 5874 5874 5873 5872 5871 5870 5869 5868 5867 5866 5865 5864 5864 5863 5862 5862 5861 5860 5860 5859 5859 5858
5878 5879 5879 5879 5879 5879 5879 5879 5879 5879 5879 5879 5879 5878 5878 5878 5877 5877 5877 5876 5876 5875 5875 5875 5874 5874 5873 5872 5872 5871 5870 5869 5868 5867 5866 5865 5864 5863 5863 5862 5861 5860 5860 5859 5858 5857 5857 5856 5856
5876 5877 5877 5877 5877 5878 5878 5878 5878 5878 5878 5878 5877 5877 5877 5876 5876 5876 5875 5875 5874 5874 5873 5873 5872 5872 5871 5871 5870 5869 5868 5867 5866 5865 5864 5863 5863 5862 5861 5860 5859 5858 5857 5856 5856 5855 5854 5854 5853
5875 5875 5875 5875 5876 5876 5876 5876 5876 5877 5877 5876 5876 5875 5875 5875 5875 5874 5873 5873 5873 5872 5871 5871 5870 5870 5869 5869 5868 5867 5866 5865 5864 5863 5862 5861 5861 5860 5859 5858 5857 5856 5855 5854 5853 5852 5851 5851 5850
5873 5873 5873 5874 5874 5874 5874 5874 5875 5875 5875 5874 5874 5874 5874 5873 5873 5872 5872 5871 5871 5870 5870 5869 5868 5868 5867 5866 5866 5865 5864 5863 5862 5861 5860 5859 5858 5858 5856 5855 5855 5854 5853 5852 5850 5849 5849 5848 5847
5871 5871 5871 5871 5872 5872 5873 5873 5873 5873 5873 5873 5872 5872 5872 5871 5871 5870 5870 5869 5869 5868 5868 5867 5866 5866 5865 5864 5863 5863 5862 5861 5860 5859 5858 5857 5856 5855 5854 5853 5852 5851 5850 5849 5848 5847 5846 5845 5844
5868 5869 5869 5869 5870 5870 5871 5871 5871 5871 5871 5871 5870 5870 5870 5870 5869 5869 5868 5867 5867 5866 5865 5865 5864 5864 5863 5862 5861 5860 5859 5859 5858 5857 5856 5855 5853 5852 5851 5850 5849 5848 5847 5846 5845 5844 5843 5842 5841
5866 5867 5867 5868 5867 5868 5870 5870 5869 5868 5868 5869 5868 5868 5868 5868 5867 5867 5866 5865 5865 5864 5863 5863 5862 5861 5860 5860 5859 5858 5857 5856 5855 5854 5853 5852 5851 5850 5848 5847 5846 5845 5844 5843 5842 5841 5840 5839 5838
5863 5864 5865 5865 5865 5865 5866 5867 5866 5866 5866 5866 5866 5866 5866 5866 5865 5865 5864 5863 5863 5862 5861 5860 5860 5859 5858 5857 5856 5855 5854 5853 5852 5851 5850 5849 5848 5847 5846 5844 5843 5842 5841 5840 5839 5838 5837 5836 5834
5862 5862 5862 5863 5863 5863 5863 5864 5864 5864 5864 5864 5864 5864 5864 5863 5863 5862 5862 5861 5860 5860 5859 5858 5857 5856 5855 5855 5854 5853 5852 5851 5850 5848 5847 5846 5845 5844 5843 5841 5840 5839 5838 5836 5835 5834 5833 5832 5831
5858 5859 5859 5860 5860 5860 5860 5861 5861 5861 5861 5861 5861 5861 5861 5861 5860 5860 5859 5859 5858 5857 5856 5855 5854 5854 5853 5852 5851 5850 5849 5848 5847 5846 5844 5843 5842 5841 5839 5838 5837 5835 5834 5833 5831 5830 5829 5828 5827
5855 5856 5857 5857 5857 5857 5857 5858 5858 5858 5858 5858 5858 5858 5858 5858 5857 5857 5856 5856 5855 5854 5854 5853 5852 5851 5850 5849 5848 5847 5846 5844 5843 5842 5841 5840 5839 5837 5836 5835 5833 5832 5831 5829 5828 5826 5825 5824 5823
5852 5853 5853 5854 5854 5854 5854 5855 5855 5855 5855 5855 5855 5855 5855 5855 5854 5854 5853 5853 5852 5851 5851 5850 5848 5847 5846 5845 5844 5843 5842 5841 5840 5839 5838 5836 5835 5834 5832 5831 5829 5828 5827 5825 5824 5822 5821 5820 5818
5849 5850 5850 5850 5850 5851 5852 5852 5852 5852 5851 5851 5851 5851 5851 5851 5851 5850 5850 5849 5848 5848 5847 5846 5845 5844 5843 5842 5841 5840 5839 5838 5836 5835 5834 5832 5831 5830 5828 5827 5825 5824 5822 5821 5819 5818 5817 5815 5814
5846 5846 5846 5847 5847 5847 5848 5848 5849 5848 5848 5848 5848 5848 5848 5848 5847 5847 5846 5846 5845 5844 5844 5843 5842 5841 5840 5839 5837 5836 5835 5834 5832 5831 5830 5828 5827 5825 5824 5823 5821 5820 5818 5817 5815 5814 5812 5811 5810
5841 5842 5843 5843 5843 5844 5844 5845 5845 5845 5845 5844 5844 5844 5844 5844 5844 5843 5842 5842 5841 5841 5840 5839 5838 5837 5836 5835 5834 5832 5831 5829 5828 5827 5825 5824 5823 5821 5819 5818 5817 5815 5814 5812 5811 5809 5808 5806 5805
5838 5839 5840 5840 5840 5841 5841 5840 5842 5841 5841 5840 5840 5840 5840 5840 5839 5839 5839 5838 5837 5837 5836 5835 5834 5833 5831 5830 5829 5828 5827 5825 5824 5823 5821 5820 5818 5817 5815 5813 5812 5810 5809 5808 5806 5805 5803 5802 5800
5834 5836 5837 5837 5837 5837 5836 5836 5838 5837 5836 5836 5836 5836 5836 5836 5835 5835 5835 5834 5833 5832 5831 5831 5830 5829 5827 5826 5825 5824 5822 5821 5820 5818 5817 5815 5814 5812 5810 5809 5807 5806 5804 5803 5801 5800 5798 5796 5795
5830 5831 5832 5832 5832 5833 5833 5833 5833 5833 5832 5832 5832 5832 5832 5832 5831 5831 5830 5829 5829 5828 5827 5826 5825 5824 5823 5822 5820 5819 5818 5816 5815 5814 5812 5811 5809 5807 5806 5804 5803 5801 5799 5797 5796 5794 5792 5791 5789
5826 5826 5827 5827 5828 5828 5829 5829 5829 5828 5828 5828 5828 5828 5827 5827 5827 5826 5825 5825 5824 5823 5822 5821 5820 5819 5818 5817 5816 5814 5813 5812 5810 5809 5807 5806 5804 5802 5801 5799 5797 5796 5794 5792 5790 5788 5787 5785 5784
5821 5822 5822 5823 5824 5824 5824 5826 5824 5824 5824 5823 5823 5823 5823 5822 5822 5821 5820 5820 5819 5818 5817 5816 5815 5814 5813 5811 5810 5809 5808 5806 5805 5803 5802 5800 5799 5797 5795 5794 5792 5790 5788 5786 5784 5783 5781 5779 5778
5816 5817 5818 5819 5818 5818 5819 5822 5819 5819 5818 5818 5818 5818 5817 5817 5816 5816 5815 5814 5813 5813 5812 5811 5810 5809 5807 5806 5805 5804 5803 5801 5800 5798 5796 5795 5793 5791 5789 5788 5786 5784 5782 5780 5778 5776 5775 5773 5772